Weather History for Green Bay, WI

Change the Weather History Date:

Saturday, September 29, 2012

  Actual Average Record
Temperature  
Mean Temperature 56 °F 54 °F  
Max Temperature 70 °F 64 °F 86 °F (1898)
Min Temperature 42 °F 43 °F 24 °F (1949)
Degree Days  
Heating Degree Days 9 12  
Month to date heating degree days 218 195  
Since 1 July heating degree days 231 258  
Cooling Degree Days 0 0  
Month to date cooling degree days 41 32  
Year to date cooling degree days 786 394  
Growing Degree Days 6 (Base 50)    
Moisture  
Dew Point 42 °F    
Average Humidity 65    
Maximum Humidity 93    
Minimum Humidity 37    
Precipitation  
Precipitation 0.00 in 0.09 in 0.94 in (1901)
Month to date precipitation 1.09 2.95  
Year to date precipitation 23.02 23.35  
Snow  
Snow 0.00 in 0.00 in 0.00 in ()
Month to date snowfall 0.0 0.0  
Since 1 July snowfall 0.0 0.0  
Since 1 September snowfall 0.0 0.0  
Snow Depth 0.00 in    
Sea Level Pressure  
Sea Level Pressure 30.07 in    
Wind  
Wind Speed 5 mph (NE)    
Max Wind Speed 12 mph    
Max Gust Speed 15 mph    
Visibility 10 miles    
Events      
T = Trace of Precipitation, MM = Missing Value Source: NWS Daily Summary

Daily Weather History Graph

Daily Weather History Graph

Search for Another Location

Airport:

Trip Planner

Search our weather history database for the weather conditions in past years. The results will help you decide how hot, cold, wet, or windy it might be!

Date:

Astronomy

Sep. 29, 2012 Rise Set
Actual Time 6:48 AM CDT 6:35 PM CDT
Civil Twilight 6:19 AM CDT 7:04 PM CDT
Nautical Twilight 5:45 AM CDT 7:38 PM CDT
Astronomical Twilight 5:11 AM CDT 8:12 PM CDT
Moon 6:06 PM CDT (9/29) 6:20 AM CDT (9/29)
Length of Visible Light 12h 45m
Length of Day
11h 47m
Full, 100% of the Moon is Illuminated
Sep 29
Full
Sep 29
Full
Oct 8
Last Quarter
Oct 15
New
Oct 21
First Quarter

Hourly Weather History & Observations

Time (CDT) Temp. Windchill Dew Point Humidity Pressure Visibility Wind Dir Wind Speed Gust Speed Precip Events Conditions
12:53 AM 43.0 °F 41.3 °F 37.9 °F 82% 30.10 in 10.0 mi West 3.5 mph - N/A   Clear
1:53 AM 48.9 °F - 39.0 °F 69% 30.09 in 10.0 mi Calm Calm - N/A   Clear
2:53 AM 44.1 °F - 37.9 °F 79% 30.09 in 10.0 mi Calm Calm - N/A   Clear
3:53 AM 43.0 °F - 39.0 °F 86% 30.09 in 10.0 mi Calm Calm - N/A   Clear
4:53 AM 44.1 °F - 39.9 °F 85% 30.08 in 10.0 mi Calm Calm - N/A   Clear
5:53 AM 44.1 °F - 39.9 °F 85% 30.09 in 10.0 mi Calm Calm - N/A   Clear
6:53 AM 44.1 °F - 39.9 °F 85% 30.09 in 10.0 mi Calm Calm - N/A   Clear
7:53 AM 46.0 °F - 42.1 °F 86% 30.10 in 10.0 mi Calm Calm - N/A   Clear
8:53 AM 55.0 °F - 44.1 °F 67% 30.10 in 10.0 mi Calm Calm - N/A   Mostly Cloudy
9:53 AM 60.1 °F - 46.0 °F 60% 30.10 in 10.0 mi NE 3.5 mph - N/A   Clear
10:53 AM 64.9 °F - 46.9 °F 52% 30.09 in 10.0 mi ENE 5.8 mph - N/A   Clear
11:53 AM 68.0 °F - 42.1 °F 39% 30.07 in 10.0 mi NE 10.4 mph - N/A   Clear
12:53 PM 68.0 °F - 42.1 °F 39% 30.06 in 10.0 mi ENE 9.2 mph - N/A   Clear
1:53 PM 69.1 °F - 42.1 °F 38% 30.04 in 10.0 mi ENE 6.9 mph - N/A   Clear
2:53 PM 70.0 °F - 43.0 °F 38% 30.04 in 10.0 mi NE 10.4 mph - N/A   Clear
3:53 PM 70.0 °F - 43.0 °F 38% 30.03 in 10.0 mi NE 10.4 mph - N/A   Clear
4:53 PM 69.1 °F - 42.1 °F 38% 30.02 in 10.0 mi ENE 6.9 mph - N/A   Clear
5:53 PM 64.0 °F - 42.1 °F 45% 30.03 in 10.0 mi NE 9.2 mph - N/A   Clear
6:53 PM 59.0 °F - 45.0 °F 60% 30.04 in 10.0 mi East 9.2 mph - N/A   Clear
7:53 PM 55.0 °F - 44.1 °F 67% 30.04 in 10.0 mi East 6.9 mph - N/A   Clear
8:53 PM 52.0 °F - 44.1 °F 74% 30.04 in 10.0 mi NNE 3.5 mph - N/A   Clear
9:53 PM 46.9 °F - 44.1 °F 90% 30.05 in 3.0 mi NNW 3.5 mph - N/A   Clear
10:53 PM 46.9 °F - 44.1 °F 90% 30.06 in 10.0 mi North 6.9 mph - N/A   Clear
11:53 PM 48.0 °F - 45.0 °F 89% 30.06 in 10.0 mi North 8.1 mph - N/A   Clear